Location: Newark
(46.7000°N, 60.6000°W)
Time: 08:30:19
(UTC+00:00)

Vanguard 3 - Pass Details

Date: 08 November 2020
Orbit: 508 x 3262 km, 33.3° (Epoch: 29 November)

Event Time Altitude Azimuth Distance (km) Brightness Sun altitude
Rises 06:15:24 0° 222° (SW) 4,585 - -47.0°
Reaches altitude 10° 06:18:19 10° 213° (SSW) 3,939 - -46.6°
Exits shadow 06:28:00 36° 153° (SSE) 3,257 10.0 -45.2°
Maximum altitude 06:28:10 36° 152° (SSE) 3,270 10.0 -45.1°
Drops below altitude 10° 06:43:04 10° 95° (E) 5,937 12.0 -42.9°
Sets 06:48:40 0° 88° (E) 7,150 12.7 -42.0°
